Other Public Products
Issued by NWS Grand Forks, ND

Home | Current Version | Previous Version | Text Only | Print | Product List | Glossary On
Versions: 1 2 3 4 5 6 7 8 9 10 11 12 13 14 15 16 17 18 19 20 21 22 23 24 25 26 27 28 29 30 31 32 33 34 35 36 37 38 39 40 41 42 43 44 45 46 47 48 49 50
000
FPUS83 KFGF 251831
OPUFGF
PRAIRIE TO PINES WEATHER ROUNDUP
NATIONAL WEATHER SERVICE EASTERN NORTH DAKOTA/GRAND FORKS ND
100 PM CDT FRI MAY 25 2018

 **SATELLITE DATA USED TO AUGMENT SKY COVER AT AUTOMATED STATIONS**
 *****  WEATHER ACROSS EASTERN NORTH DAKOTA  *****

CITY           SKY/WX    TMP DP  RH WIND       PRES   REMARKS
GRAND FORKS    FAIR      88  54  31 W10G18    29.63F
6HR MIN TEMP:  65; 6HR MAX TEMP:  88;

GRND FORKS AFB FAIR      88  53  29 W7G16     29.64F
GRND FORKS NWS   N/A     88  53  29 W12       29.61F
BUXTON           N/A     92  57  30 W12         N/A  HX  90
DEVILS LAKE    FAIR      84  56  38 SW13      29.66F
6HR MIN TEMP:  63; 6HR MAX TEMP:  84;

FARGO          FAIR      89  52  28 NW12G21   29.67F
6HR MIN TEMP:  64; 6HR MAX TEMP:  89;

WAHPETON ARPT  FAIR      90  41  18 NW12G17   29.70S
$$

 *****  WEATHER ACROSS CENTRAL AND WESTERN NORTH DAKOTA  *****

CITY           SKY/WX    TMP DP  RH WIND       PRES   REMARKS
JAMESTOWN        N/A     86  55  34 NW15G22   29.71F
6HR MIN TEMP:  64; 6HR MAX TEMP:  86;

BISMARCK       FAIR      89  55  31 W15G23    29.74F
6HR MIN TEMP:  62; 6HR MAX TEMP:  89;

MINOT          FAIR      88  50  27 W20G25    29.67S
6HR MIN TEMP:  65; 6HR MAX TEMP:  88;

MINOT AFB      FAIR      87  50  27 NW21G26   29.65S
6HR MIN TEMP:  63; 6HR MAX TEMP:  87;

GARRISON         N/A     87  49  26 W23G30    29.70F
6HR MIN TEMP:  59; 6HR MAX TEMP:  87;

WILLISTON      NOT AVBL
DICKINSON      FAIR      84  50  30 W20       29.80F
6HR MIN TEMP:  60; 6HR MAX TEMP:  84;

HETTINGER      FAIR      82  49  31 W17G26    29.86S
6HR MIN TEMP:  54; 6HR MAX TEMP:  82;

$$

 *****  OTHER OBSERVATIONS NORTHEAST NORTH DAKOTA  *****

CITY           SKY/WX    TMP DP  RH WIND       PRES   REMARKS
WALHALLA       FAIR      86  59  39 SW8       29.61F
LANGDON        NOT AVBL
CAVALIER         N/A     88  54  31 W13       29.60F
GRAFTON        NOT AVBL
CANDO          NOT AVBL
FORT TOTTEN    NOT AVBL
ROLLA          NOT AVBL
RUGBY          NOT AVBL
 ***** THE ABOVE OBSERVATIONS ARE NON NWS ARE NOT QUALITY
        CONTROLLED AND MAY MIS-REPORT RAIN FOR SNOW...
$$

 *****  OTHER OBSERVATIONS SOUTHEAST NORTH DAKOTA *****

CITY           SKY/WX    TMP DP  RH WIND       PRES   REMARKS
COOPERSTOWN    FAIR      90  50  25 W13G24    29.69F
VALLEY CITY    NOT AVBL
OAKES          NOT AVBL
GWINNER        NOT AVBL
SHEYENNE NWR     N/A     90  53  28 W10       29.95S
BUFFALO          N/A     87  46  23 W15         N/A
WYNDMERE       NOT AVBL
 ***** THE ABOVE OBSERVATIONS ARE NON NWS ARE NOT QUALITY
       CONTROLLED AND MAY MIS-REPORT RAIN FOR SNOW...
$$

  *****  WEATHER ACROSS NORTHERN MINNESOTA  *****

CITY           SKY/WX    TMP DP  RH WIND       PRES   REMARKS
FLAG ISLAND    FAIR      73  57  56 CALM      29.62S
WARROAD        FAIR      81  64  57 W8G17     29.64S
ROSEAU         FAIR      82  61  47 W8G16     29.64S
HALLOCK        FAIR      84  55  37 SW8       29.61F
THF RVR FALLS  FAIR      82  62  50 SW12      29.67F
6HR MIN TEMP:  62; 6HR MAX TEMP:  82;

HALSTAD          N/A     89  52  28 W14         N/A
FOSSTON        FAIR      84  48  28 W14G21    29.68F
BAUDETTE       FAIR      84  58  40 W14       29.64S
6HR MIN TEMP:  66; 6HR MAX TEMP:  84;

WASKISH          N/A     81  63  54 SW6       29.67F
CROOKSTON      FAIR      88  54  31 W12G20    29.65F
$$
  *****  WEATHER ACROSS CENTRAL AND WEST MINNESOTA  *****

CITY           SKY/WX    TMP DP  RH WIND       PRES   REMARKS
BEMIDJI        FAIR      84  57  39 SW14G22   29.69S
6HR MIN TEMP:  65; 6HR MAX TEMP:  84;

PARK RAPIDS    FAIR      84  56  38 W10       29.71F
6HR MIN TEMP:  64; 6HR MAX TEMP:  86;

WADENA         FAIR      82  55  39 W9G17     29.73S
DETROIT LAKES  FAIR      86  52  30 W12G21    29.73S
MOORHEAD       FAIR      90  46  22 W14G20    29.68F
FERGUS FALLS   FAIR      84  54  34 W13       29.66F
ELBOW LAKE     FAIR      88  56  33 NW13G21   29.72F
6HR MIN TEMP:  64; 6HR MAX TEMP:  87;

MORRIS MN      FAIR      90  54  29 W14G21    29.72F
STAPLES        FAIR      86  52  30 W13G22    29.73S
WHEATON        FAIR      88  48  25 W9G18     29.73S
$$
  *****  WEATHER ELSEWHERE ACROSS MINNESOTA  *****

CITY           SKY/WX    TMP DP  RH WIND       PRES   REMARKS
DULUTH         FAIR      84  63  49 W17       29.70F
6HR MIN TEMP:  68; 6HR MAX TEMP:  84;

INTRNTL FALLS  FAIR      83  57  41 W9        29.64F
6HR MIN TEMP:  64; 6HR MAX TEMP:  83;

ELY            FAIR      82  52  34 W13G23    29.67S
CLOQUET        FAIR      82  57  42 SW12G17   29.71F
BRAINERD       FAIR      85  58  39 W9        29.72F
6HR MIN TEMP:  68; 6HR MAX TEMP:  87;

HIBBING        FAIR      82  59  45 W10G16    29.69F
6HR MIN TEMP:  63; 6HR MAX TEMP:  82;

ALEXANDRIA     FAIR      88  60  38 SW13      29.76F
6HR MIN TEMP:  68; 6HR MAX TEMP:  88;

SAINT CLOUD    FAIR      90  53  28 W12G24    29.73F
6HR MIN TEMP:  65; 6HR MAX TEMP:  90;

MINNEAPOLIS    FAIR      83  69  62 SW8       29.76F
6HR MIN TEMP:  67; 6HR MAX TEMP:  83;

$$

  *****  WEATHER ACROSS SOUTH DAKOTA  *****

CITY           SKY/WX    TMP DP  RH WIND       PRES   REMARKS
SIOUX FALLS    FAIR      86  63  45 CALM      29.80F
6HR MIN TEMP:  65; 6HR MAX TEMP:  87;

BROOKINGS      FAIR      86  57  37 W12       29.80F
WATERTOWN      FAIR      84  59  42 W12G18    29.79F
6HR MIN TEMP:  62; 6HR MAX TEMP:  84;

HURON          FAIR      90  56  31 NW8G18    29.77F
6HR MIN TEMP:  62; 6HR MAX TEMP:  90;

SISSETON         N/A     89  58  34 W13       29.72F
ABERDEEN       FAIR      89  54  30 NW15G21   29.75F
6HR MIN TEMP:  60; 6HR MAX TEMP:  92;

MITCHELL       FAIR      88  58  36 W8        29.79F
PIERRE         FAIR      84  65  52 W10       29.81S
6HR MIN TEMP:  64; 6HR MAX TEMP:  85;

MOBRIDGE       FAIR      87  57  35 W15       29.77F
RAPID CITY     FAIR      81  57  43 VRB7      29.92F
6HR MIN TEMP:  58; 6HR MAX TEMP:  81;

$$

  *****  SOME WEATHER IN NEARBY STATES *****

CITY           SKY/WX    TMP DP  RH WIND       PRES   REMARKS
GLASGOW MT     FAIR      81  50  33 NW8       29.81S
6HR MIN TEMP:  59; 6HR MAX TEMP:  81;

GREAT FALLS MT FAIR      76  44  32 VRB5      29.93F
6HR MIN TEMP:  55; 6HR MAX TEMP:  76;

CHEYENNE WY    FAIR      78  40  25 MISG      30.12F
6HR MIN TEMP:  51; 6HR MAX TEMP:  78;

SCOTTSBLUFF NE FAIR      82  56  40 W8        30.00F
6HR MIN TEMP:  51; 6HR MAX TEMP:  82;

OMAHA NE       FAIR      88  61  40 S8        29.82F
6HR MIN TEMP:  69; 6HR MAX TEMP:  88;

DES MOINES IA  PTSUNNY   83  69  62 S13       29.83F
6HR MIN TEMP:  69; 6HR MAX TEMP:  83;

DAVENPORT IA   FAIR      82  66  58 SW9       29.89F
6HR MIN TEMP:  71; 6HR MAX TEMP:  85;

CHICAGO IL     PTSUNNY   87  57  35 SW10      29.88F
6HR MIN TEMP:  71; 6HR MAX TEMP:  87;

EAU CLAIRE WI  FAIR      79  67  66 SW13      29.78S
6HR MIN TEMP:  64; 6HR MAX TEMP:  79; 6HR PCP:  0.06;

LA CROSSE WI   FAIR      84  69  60 S13       29.80F
6HR MIN TEMP:  73; 6HR MAX TEMP:  84;

$$

  *****  SOME NATIONAL WEATHER *****

CITY           SKY/WX    TMP DP  RH WIND       PRES   REMARKS
LA GUARDIA NY  PTSUNNY   87  47  24 SW15G24   29.91F


USA.gov is the U.S. government's official web portal to all federal, state and local government web resources and services.